Location: Lake Arresoe
(56.0000°N, 12.5000°E)
Time: 11:29:24
(UTC+02:00)

Cosmos 1674 - Pass Details

Date: 18 August 2020
Orbit: 495 x 517 km, 82.5° (Epoch: 23 September)

Event Time Altitude Azimuth Distance (km) Brightness Sun altitude
Rises 00:14:46 0° 355° (N) 2,605 7.8 -19.9°
Reaches altitude 10° 00:17:12 10° 9° (N) 1,719 6.3 -20.0°
Maximum altitude 00:20:19 24° 65° (ENE) 1,075 4.4 -20.1°
Enters shadow 00:21:14 22° 89° (E) 1,147 4.3 -20.1°
